Haleyville, AL

4:25 AM CDT on August 18, 2017 (GMT -0500)
Haleyville

Weather History for K1M4 - April, 2014

Change the Weather History Date:

Monday, April 14, 2014

  Actual Average (KJFX) Record (KJFX)
Temperature  
Mean Temperature 60 °F -  
Max Temperature 68 °F 74 °F 89 °F (2017)
Min Temperature 50 °F 47 °F 30 °F (1962)
Degree Days  
Heating Degree Days 6    
Growing Degree Days 10 (Base 50)    
Moisture  
Dew Point 59 °F    
Average Humidity 97    
Maximum Humidity 100    
Minimum Humidity 65    
Precipitation  
Precipitation 1.16 in - - ()
Sea Level Pressure  
Sea Level Pressure 29.87 in    
Wind  
Wind Speed 11 mph (SSW)    
Max Wind Speed 18 mph    
Max Gust Speed 28 mph    
Visibility 5 miles    
Events Rain , Thunderstorm    
Averages and records for this station are not official NWS values.
T = Trace of Precipitation, MM = Missing Value Source: NWS Daily Summary

Daily Weather History Graph

Daily Weather History Graph

Search for Another Location

Airport or City:

Trip Planner

Search our weather history database for the weather conditions in past years. The results will help you decide how hot, cold, wet, or windy it might be!

Date:

Astronomy

Apr. 14, 2014 Rise Set
Actual Time 6:20 AM CDT 7:21 PM CDT
Civil Twilight 5:54 AM CDT 7:47 PM CDT
Nautical Twilight 5:24 AM CDT 8:17 PM CDT
Astronomical Twilight 4:52 AM CDT 8:49 PM CDT
Moon 7:00 PM CDT (4/14) 5:50 AM CDT (4/14)
Length of Visible Light 13h 52m
Length of Day
13h 00m
Full, 100% of the Moon is Illuminated
Apr 14
Full
Apr 15
Full
Apr 22
Last Quarter
Apr 29
New
May 6
First Quarter

Hourly Weather History & Observations

Time (CDT) Temp. Dew Point Humidity Pressure Visibility Wind Dir Wind Speed Gust Speed Precip Events Conditions
12:56 AM 68.9 °F 56.8 °F 65% 29.92 in 10.0 mi South 18.4 mph 27.6 mph N/A   Clear
1:56 AM 68.0 °F 55.9 °F 65% 29.88 in 10.0 mi South 11.5 mph 20.7 mph 0.00 in Rain Light Rain
2:56 AM 66.9 °F 55.9 °F 68% 29.94 in 9.0 mi WSW 11.5 mph - 0.00 in Rain Rain
3:04 AM 64.4 °F 57.2 °F 77% 29.90 in 4.0 mi WSW 10.4 mph - 0.01 in Rain Heavy Rain
3:18 AM 62.6 °F 57.2 °F 82% 29.91 in 7.0 mi WSW 6.9 mph - 0.02 in Rain Light Rain
3:56 AM 61.0 °F 59.0 °F 93% 29.96 in 4.0 mi SW 8.1 mph - 0.08 in Rain Heavy Rain
4:10 AM 60.8 °F 59.0 °F 94% 29.91 in 2.0 mi SSW 12.7 mph - 0.06 in Rain Heavy Rain
4:23 AM 60.8 °F 59.0 °F 94% 29.91 in 2.5 mi SSW 11.5 mph - 0.12 in Rain Heavy Rain
4:30 AM 60.8 °F 57.2 °F 88% 29.92 in 2.0 mi SSW 11.5 mph - 0.16 in Rain Heavy Rain
4:56 AM 59.0 °F 57.9 °F 96% 29.94 in 2.0 mi South 10.4 mph - 0.29 in Rain Heavy Rain
5:25 AM 57.2 °F 57.2 °F 100% 29.89 in 2.0 mi SSE 10.4 mph - 0.14 in Rain , Thunderstorm Heavy Thunderstorms and Rain
5:36 AM 57.2 °F 57.2 °F 100% 29.89 in 3.0 mi SSE 9.2 mph - 0.17 in Rain Heavy Rain
5:43 AM 57.2 °F 57.2 °F 100% 29.90 in 3.0 mi South 11.5 mph - 0.20 in Rain Heavy Rain
5:56 AM 57.9 °F 57.9 °F 100% 29.94 in 3.0 mi SSE 8.1 mph - 0.23 in Rain Heavy Rain
6:56 AM 57.9 °F 57.9 °F 100% 29.96 in 4.0 mi South 5.8 mph - 0.07 in Rain Rain
7:08 AM 57.2 °F 57.2 °F 100% 29.93 in 3.0 mi SSW 4.6 mph - 0.01 in Rain Light Rain
7:28 AM 57.2 °F 57.2 °F 100% 29.93 in 3.0 mi Variable 3.5 mph - 0.03 in Rain Rain
7:56 AM 57.9 °F 57.9 °F 100% 29.97 in 4.0 mi SE 8.1 mph - 0.04 in Rain Light Rain
8:10 AM 57.2 °F 57.2 °F 100% 29.92 in 4.0 mi SE 8.1 mph - 0.01 in Rain Rain
8:37 AM 57.2 °F 57.2 °F 100% 29.91 in 6.0 mi SSE 10.4 mph 19.6 mph 0.01 in Rain Light Rain
8:56 AM 57.9 °F 57.9 °F 100% 29.95 in 6.0 mi SSE 15.0 mph - 0.03 in Rain Light Rain
9:56 AM 57.9 °F 57.9 °F 100% 29.96 in 5.0 mi South 16.1 mph 25.3 mph 0.02 in Rain Light Rain
10:56 AM 57.9 °F 57.9 °F 100% 29.93 in 10.0 mi South 16.1 mph 27.6 mph 0.03 in   Overcast
11:56 AM 59.0 °F 59.0 °F 100% 29.94 in 10.0 mi South 10.4 mph 17.3 mph 0.01 in   Mostly Cloudy
12:10 PM 59.0 °F 59.0 °F 100% 29.87 in 10.0 mi SSE 6.9 mph - 0.00 in   Scattered Clouds
12:56 PM 59.9 °F 59.9 °F 100% 29.92 in 10.0 mi SW 8.1 mph - 0.00 in Rain Light Rain
1:45 PM 60.8 °F 60.8 °F 100% 29.89 in 5.0 mi SSW 10.4 mph - 0.01 in Rain Rain
1:56 PM 61.0 °F 59.9 °F 96% 29.91 in 4.0 mi SSW 13.8 mph 23.0 mph 0.02 in Rain Light Rain
2:29 PM 60.8 °F 60.8 °F 100% 29.81 in 7.0 mi South 15.0 mph 25.3 mph 0.03 in Rain Light Rain
2:56 PM 61.9 °F 61.0 °F 97% 29.89 in 10.0 mi West 8.1 mph - 0.03 in   Mostly Cloudy
3:26 PM 62.6 °F 60.8 °F 94% 29.84 in 10.0 mi SW 6.9 mph - N/A   Mostly Cloudy
3:43 PM 62.6 °F 60.8 °F 94% 29.83 in 10.0 mi SSW 5.8 mph - 0.00 in Rain Light Rain
3:56 PM 61.9 °F 61.9 °F 100% 29.84 in 6.0 mi SSE 13.8 mph - 0.01 in Rain Light Rain
4:30 PM 62.6 °F 62.6 °F 100% 29.81 in 6.0 mi SSW 9.2 mph - 0.01 in Rain Light Rain
4:56 PM 61.9 °F 61.9 °F 100% 29.83 in 7.0 mi South 10.4 mph - 0.02 in Rain Light Rain
5:23 PM 60.8 °F 60.8 °F 100% 29.76 in 10.0 mi SSE 9.2 mph - 0.00 in   Mostly Cloudy
5:56 PM 61.0 °F 61.0 °F 100% 29.83 in 10.0 mi South 5.8 mph - 0.00 in   Mostly Cloudy
6:05 PM 60.8 °F 60.8 °F 100% 29.79 in 10.0 mi South 6.9 mph - N/A   Mostly Cloudy
6:17 PM 60.8 °F 60.8 °F 100% 29.78 in 10.0 mi SE 3.5 mph - N/A Thunderstorm Mostly Cloudy
6:35 PM 60.8 °F 60.8 °F 100% 29.81 in 1.8 mi SSW 9.2 mph - 0.05 in Rain , Thunderstorm Heavy Thunderstorms and Rain
6:42 PM 60.8 °F 60.8 °F 100% 29.80 in 2.5 mi South 11.5 mph - 0.05 in Rain , Thunderstorm Light Thunderstorms and Rain
6:46 PM 60.8 °F 60.8 °F 100% 29.81 in 5.0 mi SSW 11.5 mph - 0.06 in Rain Light Rain
6:56 PM 59.9 °F 59.9 °F 100% 29.84 in 1.8 mi SSW 9.2 mph - 0.07 in Rain Rain
7:06 PM 60.8 °F 60.8 °F 100% 29.81 in 2.5 mi SW 10.4 mph - 0.01 in Rain Rain
7:13 PM 60.8 °F 60.8 °F 100% 29.82 in 4.0 mi SW 8.1 mph - 0.03 in Rain Heavy Rain
7:37 PM 59.0 °F 59.0 °F 100% 29.83 in 7.0 mi SSW 8.1 mph - 0.07 in Rain Light Rain
7:56 PM 59.0 °F 59.0 °F 100% 29.88 in 4.0 mi SSW 12.7 mph - 0.10 in Rain Heavy Rain
8:04 PM 59.0 °F 59.0 °F 100% 29.84 in 2.5 mi SSW 11.5 mph - 0.01 in Rain Heavy Rain
8:13 PM 59.0 °F 59.0 °F 100% 29.83 in 3.0 mi SSW 12.7 mph - 0.03 in Rain Heavy Rain
8:56 PM 59.0 °F 59.0 °F 100% 29.88 in 3.0 mi WSW 6.9 mph - 0.10 in Rain Heavy Rain
9:26 PM 59.0 °F 59.0 °F 100% 29.84 in 10.0 mi SW 5.8 mph - 0.01 in Rain Light Rain
9:56 PM 59.0 °F 59.0 °F 100% 29.90 in 7.0 mi WSW 5.8 mph - 0.01 in   Overcast
10:05 PM 59.0 °F 59.0 °F 100% 29.84 in 2.0 mi WSW 9.2 mph - 0.01 in Rain Light Rain
10:10 PM 57.2 °F 57.2 °F 100% 29.83 in 1.8 mi NW 11.5 mph - 0.01 in Rain Heavy Rain
10:17 PM 55.4 °F 55.4 °F 100% 29.86 in 1.5 mi NW 11.5 mph - 0.02 in Rain Rain
10:28 PM 53.6 °F 53.6 °F 100% 29.82 in 1.5 mi North 6.9 mph - 0.02 in Rain Rain
10:44 PM 53.6 °F 53.6 °F 100% 29.85 in 2.0 mi NW 10.4 mph - 0.03 in Rain Light Rain
11:12 PM 51.8 °F 51.8 °F 100% 29.83 in 2.5 mi North 10.4 mph - 0.00 in Rain Light Rain
11:41 PM 50.0 °F 50.0 °F 100% 29.86 in 1.8 mi NNW 13.8 mph 20.7 mph 0.00 in Rain Light Rain